Location: Archemont
(49.1579°N, 1.7598°E)
Time: 11:16:19
(UTC+00:00)

YAOGAN 1 - Pass Details

Date: 03 February 2023
Orbit: 616 x 618 km, 97.8° (Epoch: 25 March)

Event Time Altitude Azimuth Distance (km) Brightness Sun altitude
Rises 18:05:55 0° 150° (SSE) 2,883 5.8 -12.2°
Reaches altitude 10° 18:08:08 10° 145° (SE) 1,982 4.9 -12.6°
Maximum altitude 18:12:17 50° 71° (ENE) 796 2.7 -13.2°
Drops below altitude 10° 18:16:29 10° 356° (N) 1,998 5.1 -13.9°
Sets 18:18:44 0° 351° (N) 2,909 6.0 -14.3°
